Weather History for Owensboro, KY

Change the Weather History Date:

Thursday, February 28, 2013

  Actual Average Record
Temperature  
Mean Temperature 36 °F -  
Max Temperature 38 °F 52 °F 76 °F (1976)
Min Temperature 33 °F 31 °F 5 °F (1993)
Degree Days  
Heating Degree Days 30    
Moisture  
Dew Point 32 °F    
Average Humidity 88    
Maximum Humidity 97    
Minimum Humidity 79    
Precipitation  
Precipitation 0.00 in - - ()
Sea Level Pressure  
Sea Level Pressure 29.96 in    
Wind  
Wind Speed 12 mph (WNW)    
Max Wind Speed 15 mph    
Max Gust Speed -    
Visibility 8 miles    
Events Rain , Snow    
Averages and records for this station are not official NWS values.
T = Trace of Precipitation, MM = Missing Value Source: NWS Daily Summary

Daily Weather History Graph

Daily Weather History Graph

Search for Another Location

Airport:

Trip Planner

Search our weather history database for the weather conditions in past years. The results will help you decide how hot, cold, wet, or windy it might be!

Date:

Astronomy

Feb. 28, 2013 Rise Set
Actual Time 6:21 AM CST 5:41 PM CST
Civil Twilight 5:54 AM CST 6:07 PM CST
Nautical Twilight 5:24 AM CST 6:38 PM CST
Astronomical Twilight 4:54 AM CST 7:08 PM CST
Moon 9:03 PM CST (2/28) 7:34 AM CST (2/28)
Length of Visible Light 12h 13m
Length of Day
11h 20m
Waning Gibbous, 90% of the Moon is Illuminated
Feb 28
Waning Gibbous
Mar 4
Last Quarter
Mar 11
New
Mar 19
First Quarter
Mar 27
Full

Hourly Weather History & Observations

Time (CST) Temp. Windchill Dew Point Humidity Pressure Visibility Wind Dir Wind Speed Gust Speed Precip Events Conditions
12:56 AM 34.0 °F 24.6 °F 31.1 °F 89% 29.86 in 10.0 mi West 13.8 mph - 0.00 in   Overcast
1:12 AM 33.8 °F 24.8 °F 30.2 °F 87% 29.85 in 10.0 mi West 12.7 mph - N/A   Overcast
1:56 AM 34.0 °F 25.5 °F 31.1 °F 89% 29.86 in 10.0 mi West 11.5 mph - 0.00 in   Overcast
2:41 AM 33.8 °F 25.8 °F 30.2 °F 87% 29.85 in 10.0 mi West 10.4 mph - N/A   Overcast
2:56 AM 34.0 °F 25.5 °F 30.0 °F 85% 29.87 in 10.0 mi West 11.5 mph - N/A   Overcast
3:56 AM 34.0 °F 26.0 °F 31.1 °F 89% 29.88 in 10.0 mi West 10.4 mph - 0.00 in   Overcast
4:56 AM 34.0 °F 25.5 °F 31.1 °F 89% 29.90 in 10.0 mi West 11.5 mph - 0.00 in   Overcast
5:56 AM 34.0 °F 25.0 °F 31.1 °F 89% 29.91 in 7.0 mi West 12.7 mph - 0.00 in Snow Light Snow
6:56 AM 34.0 °F 25.0 °F 31.1 °F 89% 29.92 in 8.0 mi West 12.7 mph - 0.00 in Snow Light Snow Showers
7:12 AM 33.8 °F 25.3 °F 32.0 °F 93% 29.91 in 7.0 mi West 11.5 mph - 0.00 in Snow Light Snow Showers
7:56 AM 34.9 °F 26.2 °F 32.0 °F 89% 29.94 in 7.0 mi West 12.7 mph - 0.00 in Snow Light Snow Showers
8:56 AM 34.9 °F 26.6 °F 32.0 °F 89% 29.96 in 8.0 mi WNW 11.5 mph - 0.00 in   Overcast
9:56 AM 36.0 °F 27.1 °F 32.0 °F 86% 29.97 in 8.0 mi WNW 13.8 mph - N/A   Overcast
10:56 AM 36.9 °F 27.8 °F 32.0 °F 83% 29.98 in 7.0 mi WNW 15.0 mph - N/A   Overcast
11:56 AM 37.9 °F 29.6 °F 32.9 °F 82% 29.98 in 10.0 mi WNW 13.8 mph - N/A   Overcast
12:56 PM 38.8 °F 31.6 °F 32.9 °F 79% 29.97 in 8.0 mi WNW 11.5 mph - N/A   Overcast
1:56 PM 37.9 °F 29.6 °F 32.9 °F 82% 29.98 in 10.0 mi WNW 13.8 mph - N/A   Overcast
2:56 PM 37.9 °F 30.9 °F 34.0 °F 86% 30.00 in 8.0 mi WNW 10.4 mph - N/A   Overcast
3:56 PM 37.9 °F 30.9 °F 34.0 °F 86% 30.02 in 10.0 mi WNW 10.4 mph - N/A   Overcast
4:56 PM 37.9 °F 30.5 °F 34.0 °F 86% 30.04 in 10.0 mi WNW 11.5 mph - N/A   Overcast
5:56 PM 37.9 °F 32.1 °F 34.0 °F 86% 30.05 in 10.0 mi NW 8.1 mph - 0.00 in Rain Light Rain
7:37 PM 37.4 °F 31.4 °F 33.8 °F 87% 30.03 in 8.0 mi WNW 8.1 mph - 0.00 in Snow Light Snow
7:56 PM 36.0 °F 30.3 °F 34.0 °F 93% 30.05 in 8.0 mi WNW 6.9 mph - 0.00 in Snow Light Snow
9:56 PM 34.9 °F 28.3 °F 34.0 °F 97% 30.06 in 4.0 mi WNW 8.1 mph - 0.00 in Snow Light Snow
10:56 PM 34.9 °F 28.3 °F 34.0 °F 97% 30.05 in 3.0 mi WNW 8.1 mph - 0.00 in Snow Light Snow
11:12 PM 35.6 °F 29.2 °F 33.8 °F 93% 30.03 in 2.5 mi WNW 8.1 mph - 0.00 in Snow Light Snow
11:56 PM 34.9 °F 29.9 °F 34.0 °F 97% 30.04 in 3.0 mi WNW 5.8 mph - 0.00 in Snow Light Snow